START_TIME,STEP,MOV.,AL01,t_acc.,AL02,t_acc.,E37,t_acc.,H21,t_acc.
1979-07-24 06:00:33.800 ,1,1,2.,24.0,0.,24.0,0.,24.0,0.,24.0
1979-07-24 06:00:57.800 ,2,1,8.,24.0,1.,24.0,2.,24.0,0.,24.0
1979-07-24 06:01:21.800 ,6,1,3.,24.0,2.,24.0,1.,24.0,0.,24.0
1979-07-24 06:01:45.800 ,5,1,15.,24.0,0.,24.0,1.,24.0,0.,24.0
1979-07-24 06:02:09.800 ,1,1,3.,24.0,0.,24.0,1.,24.0,0.,24.0
1979-07-24 06:02:33.800 ,2,1,7.,24.0,2.,24.0,1.,24.0,0.,24.0
1979-07-24 06:02:57.800 ,6,1,3.,24.0,0.,24.0,1.,24.0,0.,24.0
1979-07-24 06:03:21.800 ,5,1,23.,24.0,0.,24.0,0.,24.0,0.,24.0
1979-07-24 06:03:45.800 ,1,1,1.,24.0,1.,24.0,1.,24.0,0.,24.0
1979-07-24 06:04:09.800 ,2,1,1.,24.0,2.,24.0,1.,24.0,0.,24.0
1979-07-24 06:04:33.800 ,6,1,0.,24.0,0.,24.0,0.,24.0,0.,24.0
1979-07-24 06:04:57.800 ,5,1,17.,24.0,2.,24.0,1.,24.0,0.,24.0
1979-07-24 06:05:21.800 ,1,1,1.,24.0,0.,24.0,0.,24.0,0.,24.0
1979-07-24 06:05:45.800 ,0,0,4.,24.0,1.,24.0,2.,24.0,0.,24.0
1979-07-24 06:06:09.800 ,0,0,1.,24.0,0.,24.0,0.,24.0,0.,24.0
1979-07-24 06:06:33.800 ,5,1,19.,24.0,0.,24.0,1.,24.0,0.,24.0
1979-07-24 06:06:57.800 ,5,0,1.,24.0,1.,24.0,2.,24.0,0.,24.0
1979-07-24 06:07:21.800 ,4,1,4.,24.0,0.,24.0,1.,24.0,0.,24.0
1979-07-24 06:07:45.800 ,4,0,5.,24.0,0.,24.0,3.,24.0,0.,24.0
1979-07-24 06:08:09.800 ,3,1,0.,24.0,1.,24.0,4.,24.0,0.,24.0
1979-07-24 06:08:33.800 ,3,0,1.,24.0,1.,24.0,1.,24.0,0.,24.0
1979-07-24 06:08:57.800 ,2,1,4.,24.0,0.,24.0,1.,24.0,0.,24.0
1979-07-24 06:09:21.800 ,2,0,3.,24.0,1.,24.0,1.,24.0,0.,24.0
1979-07-24 06:09:45.800 ,1,1,3.,24.0,0.,24.0,1.,24.0,0.,24.0
1979-07-24 06:10:09.800 ,1,0,4.,24.0,2.,24.0,0.,24.0,0.,24.0
1979-07-24 06:10:33.800 ,0,1,3.,24.0,1.,24.0,3.,24.0,0.,24.0
1979-07-24 06:10:57.800 ,0,0,3.,24.0,1.,24.0,1.,24.0,0.,24.0
1979-07-24 06:11:21.800 ,0,1,8.,24.0,1.,24.0,0.,24.0,0.,24.0
1979-07-24 06:11:45.800 ,0,0,8.,24.0,2.,24.0,0.,24.0,0.,24.0
1979-07-24 06:12:09.800 ,1,1,7.,24.0,1.,24.0,1.,24.0,0.,24.0
1979-07-24 06:12:33.800 ,1,0,0.,24.0,0.,24.0,1.,24.0,0.,24.0
1979-07-24 06:12:57.800 ,2,1,3.,24.0,1.,24.0,0.,24.0,0.,24.0
1979-07-24 06:13:21.800 ,2,0,5.,24.0,0.,24.0,1.,24.0,0.,24.0
1979-07-24 06:13:45.800 ,3,1,4.,24.0,3.,24.0,0.,24.0,0.,24.0
1979-07-24 06:14:09.800 ,3,0,1.,24.0,0.,24.0,1.,24.0,0.,24.0
1979-07-24 06:14:33.800 ,4,1,2.,24.0,1.,24.0,2.,24.0,0.,24.0
1979-07-24 06:14:57.800 ,4,0,0.,24.0,0.,24.0,0.,24.0,0.,24.0
1979-07-24 06:15:21.800 ,5,1,2.,24.0,0.,24.0,4.,24.0,0.,24.0
1979-07-24 06:15:45.800 ,5,0,1.,24.0,0.,24.0,0.,24.0,0.,24.0
1979-07-24 06:16:09.800 ,6,1,3.,24.0,0.,24.0,1.,24.0,0.,24.0
1979-07-24 06:16:33.800 ,6,0,5.,24.0,0.,24.0,0.,24.0,0.,24.0
1979-07-24 06:16:57.800 ,7,1,12.,24.0,1.,24.0,0.,24.0,0.,24.0
1979-07-24 06:17:21.800 ,7,0,46.,24.0,0.,24.0,2.,24.0,0.,24.0
1979-07-24 06:17:45.800 ,7,1,33.,24.0,0.,24.0,2.,24.0,0.,24.0
1979-07-24 06:18:09.800 ,7,0,27.,24.0,0.,24.0,1.,24.0,0.,24.0
1979-07-24 06:18:33.800 ,6,1,25.,24.0,0.,24.0,2.,24.0,0.,24.0
1979-07-24 06:18:57.800 ,6,0,4.,24.0,3.,24.0,1.,24.0,0.,24.0
1979-07-24 06:19:21.800 ,5,1,7.,24.0,0.,24.0,1.,24.0,0.,24.0
1979-07-24 06:19:45.800 ,5,0,1.,24.0,0.,24.0,1.,24.0,0.,24.0
1979-07-24 06:20:09.800 ,4,1,1.,24.0,0.,24.0,1.,24.0,0.,24.0
1979-07-24 06:20:33.800 ,4,0,3.,24.0,0.,24.0,1.,24.0,0.,24.0
1979-07-24 06:20:57.800 ,3,1,3.,24.0,0.,24.0,1.,24.0,0.,24.0
1979-07-24 06:21:21.800 ,3,0,0.,24.0,1.,24.0,2.,24.0,0.,24.0
1979-07-24 06:21:45.800 ,2,1,4.,24.0,0.,24.0,0.,24.0,0.,24.0
1979-07-24 06:22:09.800 ,2,0,2.,24.0,2.,24.0,1.,24.0,0.,24.0
1979-07-24 06:22:33.800 ,1,1,4.,24.0,0.,24.0,1.,24.0,0.,24.0
1979-07-24 06:22:57.800 ,1,0,5.,24.0,1.,24.0,0.,24.0,0.,24.0
1979-07-24 06:23:21.800 ,0,1,3.,24.0,2.,24.0,3.,24.0,0.,24.0
1979-07-24 06:23:45.800 ,0,0,7.,24.0,2.,24.0,1.,24.0,0.,24.0
1979-07-24 06:24:09.800 ,0,1,4.,24.0,3.,24.0,3.,24.0,0.,24.0
1979-07-24 06:24:33.800 ,0,0,2.,24.0,3.,24.0,4.,24.0,0.,24.0
1979-07-24 06:24:57.800 ,1,1,6.,24.0,1.,24.0,2.,24.0,0.,24.0
1979-07-24 06:25:21.800 ,1,0,1.,24.0,0.,24.0,1.,24.0,0.,24.0
1979-07-24 06:25:45.800 ,2,1,3.,24.0,1.,24.0,1.,24.0,0.,24.0
1979-07-24 06:26:09.800 ,2,0,3.,24.0,0.,24.0,3.,24.0,0.,24.0
1979-07-24 06:26:33.800 ,3,1,3.,24.0,0.,24.0,2.,24.0,0.,24.0
1979-07-24 06:26:57.800 ,3,0,1.,24.0,0.,24.0,0.,24.0,0.,24.0
1979-07-24 06:27:21.800 ,4,1,3.,24.0,0.,24.0,3.,24.0,0.,24.0
1979-07-24 06:27:45.800 ,4,0,1.,24.0,0.,24.0,1.,24.0,0.,24.0
1979-07-24 06:28:09.800 ,5,1,4.,24.0,1.,24.0,0.,24.0,0.,24.0
1979-07-24 06:28:33.800 ,5,0,0.,24.0,0.,24.0,1.,24.0,0.,24.0
1979-07-24 06:28:57.800 ,6,1,4.,24.0,0.,24.0,0.,24.0,0.,24.0
1979-07-24 06:29:21.800 ,6,0,1.,24.0,0.,24.0,6.,24.0,0.,24.0
1979-07-24 06:29:45.800 ,7,1,11.,24.0,0.,24.0,1.,24.0,0.,24.0
1979-07-24 06:30:09.800 ,7,0,25.,24.0,0.,24.0,2.,24.0,0.,24.0
1979-07-24 06:30:33.800 ,7,1,36.,24.0,1.,24.0,0.,24.0,0.,24.0
1979-07-24 06:30:57.800 ,7,0,33.,24.0,0.,24.0,1.,24.0,0.,24.0
1979-07-24 06:31:21.800 ,6,1,22.,24.0,0.,24.0,2.,24.0,0.,24.0
1979-07-24 06:31:45.800 ,6,0,1.,24.0,0.,24.0,1.,24.0,0.,24.0
1979-07-24 06:32:09.800 ,5,1,2.,24.0,0.,24.0,3.,24.0,0.,24.0
1979-07-24 06:32:33.800 ,5,0,1.,24.0,0.,24.0,0.,24.0,0.,24.0
1979-07-24 06:32:57.800 ,4,1,1.,24.0,0.,24.0,2.,24.0,0.,24.0
1979-07-24 06:33:21.800 ,4,0,2.,24.0,1.,24.0,1.,24.0,0.,24.0
1979-07-24 06:33:45.800 ,3,1,0.,24.0,0.,24.0,4.,24.0,0.,24.0
1979-07-24 06:34:09.800 ,3,0,4.,24.0,0.,24.0,0.,24.0,0.,24.0
1979-07-24 06:34:33.800 ,2,1,3.,24.0,1.,24.0,0.,24.0,0.,24.0
1979-07-24 06:34:57.800 ,2,0,1.,24.0,0.,24.0,1.,24.0,0.,24.0
1979-07-24 06:35:21.800 ,1,1,3.,24.0,1.,24.0,0.,24.0,0.,24.0
1979-07-24 06:35:45.800 ,1,0,4.,24.0,0.,24.0,2.,24.0,0.,24.0
1979-07-24 06:36:09.800 ,0,1,7.,24.0,1.,24.0,2.,24.0,0.,24.0
1979-07-24 06:36:33.800 ,0,0,6.,24.0,3.,24.0,2.,24.0,0.,24.0
1979-07-24 06:36:57.800 ,0,1,8.,24.0,3.,24.0,1.,24.0,0.,24.0
1979-07-24 06:37:21.800 ,0,0,5.,24.0,3.,24.0,2.,24.0,0.,24.0
1979-07-24 06:37:45.800 ,1,1,6.,24.0,2.,24.0,3.,24.0,0.,24.0
1979-07-24 06:38:09.800 ,1,0,5.,24.0,1.,24.0,2.,24.0,0.,24.0
1979-07-24 06:38:33.800 ,2,1,3.,24.0,1.,24.0,4.,24.0,0.,24.0
1979-07-24 06:38:57.800 ,2,0,3.,24.0,0.,24.0,1.,24.0,0.,24.0
1979-07-24 06:39:21.800 ,3,1,3.,24.0,1.,24.0,1.,24.0,0.,24.0
1979-07-24 06:39:45.800 ,3,0,2.,24.0,2.,24.0,1.,24.0,0.,24.0
1979-07-24 06:40:09.800 ,4,1,1.,24.0,1.,24.0,1.,24.0,0.,24.0
1979-07-24 06:40:33.800 ,4,0,0.,24.0,0.,24.0,2.,24.0,0.,24.0
1979-07-24 06:40:57.800 ,5,1,0.,24.0,1.,24.0,3.,24.0,0.,24.0
1979-07-24 06:41:21.800 ,5,0,3.,24.0,2.,24.0,3.,24.0,0.,24.0
1979-07-24 06:41:45.800 ,6,1,1.,24.0,1.,24.0,0.,24.0,0.,24.0
1979-07-24 06:42:09.800 ,6,0,2.,24.0,0.,24.0,1.,24.0,0.,24.0
1979-07-24 06:42:33.800 ,7,0,9.,24.0,0.,24.0,1.,24.0,0.,24.0
1979-07-24 06:42:57.800 ,7,0,26.,24.0,0.,24.0,1.,24.0,0.,24.0
1979-07-24 06:43:21.800 ,5,1,16.,24.0,0.,24.0,2.,24.0,0.,24.0
1979-07-24 06:43:45.800 ,1,1,3.,24.0,0.,24.0,5.,24.0,0.,24.0
1979-07-24 06:44:09.800 ,2,1,2.,24.0,1.,24.0,2.,24.0,0.,24.0
1979-07-24 06:44:33.800 ,6,1,2.,24.0,0.,24.0,0.,24.0,0.,24.0
1979-07-24 06:44:57.800 ,5,1,9.,24.0,0.,24.0,2.,24.0,0.,24.0
1979-07-24 06:45:21.800 ,1,1,2.,24.0,2.,24.0,3.,24.0,0.,24.0
1979-07-24 06:45:45.800 ,2,1,4.,24.0,1.,24.0,2.,24.0,0.,24.0
1979-07-24 06:46:09.800 ,6,1,1.,24.0,1.,24.0,2.,24.0,0.,24.0
1979-07-24 06:46:33.800 ,5,1,13.,24.0,0.,24.0,2.,24.0,0.,24.0
1979-07-24 06:46:57.800 ,1,1,1.,24.0,1.,24.0,2.,24.0,0.,24.0
1979-07-24 06:47:21.800 ,0,0,,0,,0,,0,,0
1979-07-24 06:47:45.800 ,0,0,,0,,0,,0,,0
1979-07-24 06:47:45.800 ,6,1,1.,24.0,0.,24.0,1.,24.0,0.,24.0
1979-07-24 06:48:09.800 ,5,1,16.,24.0,0.,24.0,1.,24.0,0.,24.0
1979-07-24 06:48:33.800 ,1,1,5.,24.0,1.,24.0,3.,24.0,0.,24.0
1979-07-24 06:48:57.800 ,2,1,4.,24.0,2.,24.0,2.,24.0,0.,24.0
1979-07-24 06:49:21.800 ,6,1,1.,24.0,0.,24.0,3.,24.0,0.,24.0
1979-07-24 06:49:45.800 ,5,1,14.,24.0,0.,24.0,0.,24.0,0.,24.0
1979-07-24 06:50:09.800 ,1,1,2.,24.0,0.,24.0,1.,24.0,0.,24.0
1979-07-24 06:50:33.800 ,2,1,6.,24.0,1.,24.0,5.,24.0,0.,24.0
1979-07-24 06:50:57.800 ,6,1,0.,24.0,0.,24.0,2.,24.0,0.,24.0
1979-07-24 06:51:21.800 ,5,1,14.,24.0,0.,24.0,2.,24.0,0.,24.0
1979-07-24 06:51:45.800 ,1,1,2.,24.0,0.,24.0,1.,24.0,0.,24.0
1979-07-24 06:52:09.800 ,2,1,8.,24.0,1.,24.0,0.,24.0,0.,24.0
1979-07-24 06:52:33.800 ,6,1,0.,24.0,0.,24.0,2.,24.0,0.,24.0
1979-07-24 06:52:57.800 ,5,1,19.,24.0,0.,24.0,0.,24.0,0.,24.0
1979-07-24 06:53:21.800 ,1,1,3.,24.0,0.,24.0,2.,24.0,0.,24.0
1979-07-24 06:54:33.800 ,0,0,17.,24.0,0.,24.0,1.,24.0,0.,24.0
1979-07-24 06:54:57.800 ,0,0,2.,24.0,0.,24.0,2.,24.0,0.,24.0
1979-07-24 06:55:21.800 ,4,1,0.,24.0,0.,24.0,1.,24.0,0.,24.0
1979-07-24 06:55:45.800 ,4,0,3.,24.0,0.,24.0,0.,24.0,0.,24.0
1979-07-24 06:56:09.800 ,3,1,4.,24.0,2.,24.0,0.,24.0,0.,24.0
1979-07-24 06:56:33.800 ,3,0,4.,24.0,0.,24.0,0.,24.0,0.,24.0
1979-07-24 06:56:57.800 ,2,1,2.,24.0,0.,24.0,2.,24.0,0.,24.0
1979-07-24 06:57:21.800 ,2,0,2.,24.0,2.,24.0,2.,24.0,0.,24.0
1979-07-24 06:57:45.800 ,1,1,2.,24.0,1.,24.0,2.,24.0,0.,24.0
1979-07-24 06:58:09.800 ,1,0,5.,24.0,0.,24.0,2.,24.0,0.,24.0
1979-07-24 06:58:33.800 ,0,1,3.,24.0,0.,24.0,2.,24.0,0.,24.0
1979-07-24 06:58:57.800 ,0,0,6.,24.0,4.,24.0,2.,24.0,0.,24.0
1979-07-24 06:59:21.800 ,0,1,7.,24.0,1.,24.0,4.,24.0,0.,24.0
1979-07-24 06:59:45.800 ,0,0,7.,24.0,1.,24.0,2.,24.0,0.,24.0
1979-07-24 07:00:09.800 ,1,1,4.,24.0,0.,24.0,2.,24.0,0.,24.0
1979-07-24 07:00:33.800 ,1,0,0.,24.0,0.,24.0,1.,24.0,0.,24.0
1979-07-24 07:00:57.800 ,2,1,0.,24.0,1.,24.0,2.,24.0,0.,24.0
1979-07-24 07:01:21.800 ,2,0,0.,24.0,0.,24.0,1.,24.0,0.,24.0
1979-07-24 07:01:45.800 ,3,1,6.,24.0,0.,24.0,2.,24.0,0.,24.0
1979-07-24 07:02:09.800 ,3,0,1.,24.0,0.,24.0,2.,24.0,0.,24.0
1979-07-24 07:02:33.800 ,4,1,1.,24.0,0.,24.0,0.,24.0,0.,24.0
1979-07-24 07:02:57.800 ,4,0,1.,24.0,0.,24.0,1.,24.0,0.,24.0
1979-07-24 07:03:21.800 ,5,1,2.,24.0,0.,24.0,3.,24.0,0.,24.0
1979-07-24 07:03:45.800 ,5,0,0.,24.0,0.,24.0,1.,24.0,0.,24.0
1979-07-24 07:04:09.800 ,6,1,1.,24.0,1.,24.0,2.,24.0,0.,24.0
1979-07-24 07:04:33.800 ,6,0,7.,24.0,1.,24.0,0.,24.0,0.,24.0
1979-07-24 07:04:57.800 ,7,1,12.,24.0,0.,24.0,1.,24.0,0.,24.0
1979-07-24 07:05:21.800 ,7,0,32.,24.0,0.,24.0,2.,24.0,0.,24.0
1979-07-24 07:05:45.800 ,7,1,31.,24.0,0.,24.0,2.,24.0,0.,24.0
1979-07-24 07:06:09.790 ,7,0,32.,24.0,0.,24.0,4.,24.0,0.,24.0
1979-07-24 07:06:33.800 ,6,1,26.,24.0,0.,24.0,2.,24.0,0.,24.0
1979-07-24 07:06:57.800 ,6,0,3.,24.0,1.,24.0,2.,24.0,0.,24.0
1979-07-24 07:07:21.800 ,5,1,4.,24.0,1.,24.0,2.,24.0,0.,24.0
1979-07-24 07:07:45.800 ,5,0,4.,24.0,0.,24.0,1.,24.0,0.,24.0
1979-07-24 07:08:09.790 ,4,1,2.,24.0,1.,24.0,2.,24.0,0.,24.0
1979-07-24 07:08:33.790 ,4,0,2.,24.0,0.,24.0,0.,24.0,0.,24.0
1979-07-24 07:08:57.790 ,3,1,2.,24.0,0.,24.0,2.,24.0,0.,24.0
1979-07-24 07:09:21.790 ,3,0,1.,24.0,0.,24.0,3.,24.0,0.,24.0
1979-07-24 07:09:45.790 ,2,1,0.,24.0,1.,24.0,0.,24.0,0.,24.0
1979-07-24 07:10:09.790 ,2,0,3.,24.0,1.,24.0,1.,24.0,0.,24.0
1979-07-24 07:10:33.790 ,1,1,0.,24.0,0.,24.0,3.,24.0,0.,24.0
1979-07-24 07:10:57.790 ,1,0,1.,24.0,1.,24.0,2.,24.0,0.,24.0
1979-07-24 07:11:21.790 ,0,1,6.,24.0,0.,24.0,1.,24.0,0.,24.0
1979-07-24 07:11:45.790 ,0,0,2.,24.0,5.,24.0,2.,24.0,0.,24.0
1979-07-24 07:12:09.790 ,0,1,2.,24.0,0.,24.0,2.,24.0,0.,24.0
1979-07-24 07:12:33.790 ,0,0,1.,24.0,0.,24.0,2.,24.0,0.,24.0
1979-07-24 07:12:57.790 ,1,1,5.,24.0,3.,24.0,3.,24.0,0.,24.0
1979-07-24 07:13:21.790 ,1,0,4.,24.0,0.,24.0,1.,24.0,0.,24.0
1979-07-24 07:13:45.790 ,2,1,6.,24.0,0.,24.0,2.,24.0,0.,24.0
1979-07-24 07:14:09.790 ,2,0,5.,24.0,1.,24.0,0.,24.0,0.,24.0
1979-07-24 07:14:33.790 ,3,1,9.,24.0,0.,24.0,2.,24.0,0.,24.0
1979-07-24 07:14:57.790 ,3,0,3.,24.0,0.,24.0,0.,24.0,0.,24.0
1979-07-24 07:15:21.790 ,4,1,2.,24.0,0.,24.0,1.,24.0,0.,24.0
1979-07-24 07:15:45.790 ,4,0,1.,24.0,0.,24.0,1.,24.0,0.,24.0
1979-07-24 07:16:09.790 ,5,1,2.,24.0,1.,24.0,2.,24.0,0.,24.0
1979-07-24 07:16:33.790 ,5,0,3.,24.0,0.,24.0,2.,24.0,0.,24.0
1979-07-24 07:16:57.790 ,6,1,0.,24.0,0.,24.0,3.,24.0,0.,24.0
1979-07-24 07:17:21.800 ,6,0,1.,24.0,0.,24.0,4.,24.0,0.,24.0
1979-07-24 07:17:45.800 ,7,1,9.,24.0,0.,24.0,1.,24.0,0.,24.0
1979-07-24 07:18:09.800 ,7,0,28.,24.0,0.,24.0,2.,24.0,0.,24.0
1979-07-24 07:18:33.800 ,7,1,30.,24.0,0.,24.0,1.,24.0,0.,24.0
1979-07-24 07:18:57.800 ,7,0,38.,24.0,0.,24.0,4.,24.0,0.,24.0
1979-07-24 07:19:21.800 ,6,1,32.,24.0,1.,24.0,2.,24.0,0.,24.0
1979-07-24 07:19:45.800 ,6,0,2.,24.0,1.,24.0,1.,24.0,0.,24.0
1979-07-24 07:20:09.800 ,5,1,1.,24.0,1.,24.0,3.,24.0,0.,24.0
1979-07-24 07:20:33.800 ,5,0,3.,24.0,0.,24.0,2.,24.0,0.,24.0
1979-07-24 07:20:57.800 ,4,1,0.,24.0,1.,24.0,0.,24.0,0.,24.0
1979-07-24 07:21:21.800 ,4,0,0.,24.0,0.,24.0,1.,24.0,0.,24.0
1979-07-24 07:21:45.800 ,3,1,2.,24.0,0.,24.0,1.,24.0,0.,24.0
1979-07-24 07:22:09.800 ,3,0,4.,24.0,0.,24.0,1.,24.0,0.,24.0
1979-07-24 07:22:33.800 ,2,1,2.,24.0,1.,24.0,2.,24.0,0.,24.0
1979-07-24 07:22:57.800 ,2,0,5.,24.0,0.,24.0,1.,24.0,0.,24.0
1979-07-24 07:23:21.800 ,1,1,9.,24.0,1.,24.0,4.,24.0,0.,24.0
1979-07-24 07:23:45.800 ,1,0,2.,24.0,0.,24.0,0.,24.0,0.,24.0
1979-07-24 07:24:09.800 ,0,1,1.,24.0,1.,24.0,1.,24.0,0.,24.0
1979-07-24 07:24:33.800 ,0,0,2.,24.0,2.,24.0,0.,24.0,0.,24.0
1979-07-24 07:24:57.790 ,0,1,4.,24.0,3.,24.0,3.,24.0,0.,24.0
1979-07-24 07:25:21.790 ,0,0,5.,24.0,1.,24.0,4.,24.0,0.,24.0
1979-07-24 07:25:45.790 ,1,1,5.,24.0,2.,24.0,0.,24.0,0.,24.0
1979-07-24 07:26:09.790 ,1,0,1.,24.0,0.,24.0,0.,24.0,0.,24.0
1979-07-24 07:26:33.790 ,2,1,3.,24.0,1.,24.0,2.,24.0,0.,24.0
1979-07-24 07:26:57.790 ,2,0,3.,24.0,4.,24.0,0.,24.0,0.,24.0
1979-07-24 07:27:21.790 ,3,1,4.,24.0,1.,24.0,2.,24.0,0.,24.0
1979-07-24 07:27:45.790 ,3,0,2.,24.0,0.,24.0,4.,24.0,0.,24.0
1979-07-24 07:28:09.790 ,4,1,3.,24.0,0.,24.0,0.,24.0,0.,24.0
1979-07-24 07:28:33.790 ,4,0,1.,24.0,0.,24.0,3.,24.0,0.,24.0
1979-07-24 07:28:57.790 ,5,1,0.,24.0,0.,24.0,1.,24.0,0.,24.0
1979-07-24 07:29:21.790 ,5,0,1.,24.0,0.,24.0,1.,24.0,0.,24.0
1979-07-24 07:29:45.790 ,6,1,0.,24.0,0.,24.0,2.,24.0,0.,24.0
1979-07-24 07:30:09.790 ,6,0,4.,24.0,0.,24.0,2.,24.0,0.,24.0
1979-07-24 07:30:33.790 ,7,0,14.,24.0,0.,24.0,0.,24.0,0.,24.0
1979-07-24 07:30:57.790 ,7,0,28.,24.0,0.,24.0,3.,24.0,0.,24.0
1979-07-24 07:31:21.790 ,5,1,24.,24.0,1.,24.0,1.,24.0,0.,24.0
1979-07-24 07:31:45.790 ,1,1,5.,24.0,0.,24.0,3.,24.0,0.,24.0
1979-07-24 07:32:09.790 ,2,1,2.,24.0,1.,24.0,0.,24.0,0.,24.0
1979-07-24 07:32:33.790 ,6,1,1.,24.0,0.,24.0,2.,24.0,0.,24.0
1979-07-24 07:32:57.790 ,5,1,19.,24.0,0.,24.0,0.,24.0,0.,24.0
1979-07-24 07:33:21.790 ,1,1,3.,24.0,2.,24.0,3.,24.0,0.,24.0
1979-07-24 07:33:45.790 ,2,1,1.,24.0,2.,24.0,0.,24.0,0.,24.0
1979-07-24 07:34:09.790 ,6,1,5.,24.0,3.,24.0,0.,24.0,0.,24.0
1979-07-24 07:34:33.790 ,5,1,18.,24.0,0.,24.0,1.,24.0,0.,24.0
1979-07-24 07:34:57.790 ,1,1,3.,24.0,1.,24.0,3.,24.0,0.,24.0
1979-07-24 07:35:21.790 ,2,1,2.,24.0,2.,24.0,2.,24.0,0.,24.0
1979-07-24 07:35:45.790 ,6,1,5.,24.0,0.,24.0,2.,24.0,0.,24.0
1979-07-24 07:36:09.790 ,5,1,15.,24.0,0.,24.0,1.,24.0,0.,24.0
1979-07-24 07:36:33.790 ,1,1,2.,24.0,2.,24.0,0.,24.0,0.,24.0
1979-07-24 07:36:57.790 ,2,1,5.,24.0,1.,24.0,6.,24.0,0.,24.0
1979-07-24 07:37:21.790 ,6,1,1.,24.0,0.,24.0,3.,24.0,0.,24.0
1979-07-24 07:37:45.790 ,5,1,20.,24.0,0.,24.0,0.,24.0,0.,24.0
1979-07-24 07:38:09.790 ,1,1,5.,24.0,1.,24.0,2.,24.0,0.,24.0
1979-07-24 07:38:33.790 ,2,1,3.,24.0,4.,24.0,2.,24.0,0.,24.0
1979-07-24 07:38:57.790 ,6,1,2.,24.0,0.,24.0,2.,24.0,0.,24.0
1979-07-24 07:39:21.790 ,5,1,17.,24.0,0.,24.0,3.,24.0,0.,24.0
1979-07-24 07:39:45.790 ,1,1,4.,24.0,0.,24.0,5.,24.0,0.,24.0
1979-07-24 07:40:09.790 ,2,1,7.,24.0,0.,24.0,1.,24.0,0.,24.0
1979-07-24 07:40:33.790 ,6,1,1.,24.0,1.,24.0,2.,24.0,0.,24.0
1979-07-24 07:40:57.790 ,5,1,18.,24.0,0.,24.0,8.,24.0,0.,24.0
1979-07-24 07:41:21.790 ,1,1,2.,24.0,1.,24.0,5.,24.0,0.,24.0
1979-07-24 07:41:45.790 ,0,0,6.,24.0,1.,24.0,3.,24.0,0.,24.0
1979-07-24 07:42:09.790 ,0,0,2.,24.0,0.,24.0,2.,24.0,0.,24.0
1979-07-24 07:42:33.790 ,5,1,18.,24.0,0.,24.0,4.,24.0,0.,24.0
1979-07-24 07:42:57.790 ,5,0,4.,24.0,0.,24.0,3.,24.0,0.,24.0
1979-07-24 07:43:21.790 ,4,1,4.,24.0,0.,24.0,6.,24.0,0.,24.0
1979-07-24 07:43:45.790 ,4,0,2.,24.0,0.,24.0,2.,24.0,0.,24.0
1979-07-24 07:44:09.790 ,3,1,2.,24.0,1.,24.0,4.,24.0,0.,24.0
1979-07-24 07:44:33.790 ,3,0,0.,24.0,1.,24.0,5.,24.0,0.,24.0
1979-07-24 07:44:57.790 ,2,1,2.,24.0,1.,24.0,4.,24.0,0.,24.0
1979-07-24 07:45:21.790 ,2,0,7.,24.0,1.,24.0,2.,24.0,0.,24.0
1979-07-24 07:45:45.790 ,1,1,4.,24.0,4.,24.0,4.,24.0,0.,24.0
1979-07-24 07:46:09.790 ,1,0,3.,24.0,1.,24.0,0.,24.0,0.,24.0
1979-07-24 07:46:33.790 ,0,1,3.,24.0,1.,24.0,0.,24.0,0.,24.0
1979-07-24 07:46:57.790 ,0,0,2.,24.0,1.,24.0,3.,24.0,0.,24.0
1979-07-24 07:47:21.790 ,0,1,4.,24.0,1.,24.0,5.,24.0,0.,24.0
1979-07-24 07:47:45.790 ,0,0,4.,24.0,1.,24.0,2.,24.0,0.,24.0
1979-07-24 07:48:09.790 ,1,1,4.,24.0,0.,24.0,3.,24.0,0.,24.0
1979-07-24 07:48:33.790 ,1,0,6.,24.0,2.,24.0,1.,24.0,0.,24.0
1979-07-24 07:48:57.790 ,2,1,3.,24.0,1.,24.0,1.,24.0,0.,24.0
1979-07-24 07:49:21.790 ,2,0,6.,24.0,1.,24.0,1.,24.0,0.,24.0
1979-07-24 07:49:45.790 ,3,1,3.,24.0,1.,24.0,3.,24.0,0.,24.0
1979-07-24 07:50:09.790 ,3,0,4.,24.0,0.,24.0,0.,24.0,0.,24.0
1979-07-24 07:50:33.790 ,4,1,0.,24.0,1.,24.0,3.,24.0,0.,24.0
1979-07-24 07:50:57.790 ,4,0,0.,24.0,1.,24.0,4.,24.0,0.,24.0
1979-07-24 07:51:21.790 ,5,1,0.,24.0,1.,24.0,7.,24.0,0.,24.0
1979-07-24 07:51:45.790 ,5,0,2.,24.0,1.,24.0,0.,24.0,0.,24.0
1979-07-24 07:52:09.790 ,6,1,1.,24.0,0.,24.0,4.,24.0,0.,24.0
1979-07-24 07:52:33.790 ,6,0,5.,24.0,0.,24.0,1.,24.0,0.,24.0
1979-07-24 07:52:57.790 ,7,1,11.,24.0,3.,24.0,1.,24.0,0.,24.0
1979-07-24 07:53:21.790 ,7,0,30.,24.0,0.,24.0,2.,24.0,0.,24.0
1979-07-24 07:53:45.790 ,7,1,45.,24.0,1.,24.0,2.,24.0,0.,24.0
1979-07-24 07:54:09.790 ,7,0,34.,24.0,0.,24.0,1.,24.0,0.,24.0
1979-07-24 07:54:33.790 ,6,1,41.,24.0,0.,24.0,4.,24.0,0.,24.0
1979-07-24 07:54:57.790 ,6,0,0.,24.0,0.,24.0,2.,24.0,0.,24.0
1979-07-24 07:55:21.790 ,5,1,3.,24.0,0.,24.0,0.,24.0,0.,24.0
1979-07-24 07:55:45.790 ,5,0,3.,24.0,0.,24.0,0.,24.0,0.,24.0
1979-07-24 07:56:09.790 ,4,1,1.,24.0,1.,24.0,1.,24.0,0.,24.0
1979-07-24 07:56:33.790 ,4,0,3.,24.0,0.,24.0,3.,24.0,0.,24.0
1979-07-24 07:56:57.790 ,3,1,2.,24.0,1.,24.0,4.,24.0,0.,24.0
1979-07-24 07:57:21.790 ,3,0,2.,24.0,2.,24.0,1.,24.0,0.,24.0
1979-07-24 07:57:45.790 ,2,1,4.,24.0,2.,24.0,1.,24.0,0.,24.0
1979-07-24 07:58:09.790 ,2,0,2.,24.0,3.,24.0,6.,24.0,0.,24.0
1979-07-24 07:58:33.790 ,1,1,7.,24.0,0.,24.0,0.,24.0,0.,24.0
1979-07-24 07:58:57.790 ,1,0,6.,24.0,2.,24.0,3.,24.0,0.,24.0
1979-07-24 07:59:21.790 ,0,1,7.,24.0,1.,24.0,1.,24.0,0.,24.0
1979-07-24 07:59:45.790 ,0,0,2.,24.0,0.,24.0,5.,24.0,0.,24.0
1979-07-24 08:00:09.790 ,0,1,6.,24.0,3.,24.0,2.,24.0,0.,24.0
1979-07-24 08:00:33.790 ,0,0,3.,24.0,3.,24.0,2.,24.0,0.,24.0
1979-07-24 08:00:57.790 ,1,1,3.,24.0,2.,24.0,0.,24.0,0.,24.0
1979-07-24 08:01:21.790 ,1,0,6.,24.0,2.,24.0,5.,24.0,0.,24.0
1979-07-24 08:01:45.790 ,2,1,5.,24.0,1.,24.0,2.,24.0,0.,24.0
1979-07-24 08:02:09.790 ,2,0,4.,24.0,0.,24.0,2.,24.0,0.,24.0
1979-07-24 08:02:33.790 ,3,1,1.,24.0,3.,24.0,2.,24.0,0.,24.0
1979-07-24 08:02:57.790 ,3,0,0.,24.0,0.,24.0,2.,24.0,0.,24.0
1979-07-24 08:03:21.790 ,4,1,1.,24.0,1.,24.0,2.,24.0,0.,24.0
1979-07-24 08:03:45.790 ,4,0,4.,24.0,0.,24.0,2.,24.0,0.,24.0
1979-07-24 08:04:09.790 ,5,1,2.,24.0,1.,24.0,1.,24.0,0.,24.0
1979-07-24 08:04:33.790 ,5,0,1.,24.0,0.,24.0,2.,24.0,0.,24.0
1979-07-24 08:04:57.790 ,6,1,0.,24.0,0.,24.0,3.,24.0,0.,24.0
1979-07-24 08:05:21.790 ,6,0,0.,24.0,0.,24.0,3.,24.0,0.,24.0
1979-07-24 08:05:45.790 ,7,1,7.,24.0,1.,24.0,2.,24.0,0.,24.0
1979-07-24 08:06:09.790 ,7,0,27.,24.0,0.,24.0,3.,24.0,0.,24.0
1979-07-24 08:06:33.790 ,7,1,23.,24.0,0.,24.0,2.,24.0,0.,24.0
1979-07-24 08:06:57.790 ,7,0,29.,24.0,0.,24.0,2.,24.0,0.,24.0
1979-07-24 08:07:21.790 ,6,1,27.,24.0,0.,24.0,2.,24.0,0.,24.0
1979-07-24 08:07:45.790 ,6,0,4.,24.0,1.,24.0,2.,24.0,0.,24.0
1979-07-24 08:08:09.790 ,5,1,3.,24.0,0.,24.0,6.,24.0,0.,24.0
1979-07-24 08:08:33.790 ,5,0,1.,24.0,0.,24.0,0.,24.0,0.,24.0
1979-07-24 08:08:57.790 ,4,1,1.,24.0,0.,24.0,1.,24.0,0.,24.0
1979-07-24 08:09:21.790 ,4,0,6.,24.0,1.,24.0,2.,24.0,0.,24.0
1979-07-24 08:09:45.790 ,3,1,4.,24.0,0.,24.0,2.,24.0,0.,24.0
1979-07-24 08:10:09.790 ,3,0,2.,24.0,0.,24.0,2.,24.0,0.,24.0
1979-07-24 08:10:33.790 ,2,1,0.,24.0,1.,24.0,3.,24.0,0.,24.0
1979-07-24 08:10:57.790 ,2,0,4.,24.0,2.,24.0,2.,24.0,0.,24.0
1979-07-24 08:11:21.790 ,1,1,5.,24.0,0.,24.0,1.,24.0,0.,24.0
1979-07-24 08:11:45.790 ,1,0,2.,24.0,1.,24.0,2.,24.0,0.,24.0
1979-07-24 08:12:09.790 ,0,1,2.,24.0,1.,24.0,2.,24.0,0.,24.0
1979-07-24 08:12:33.790 ,0,0,2.,24.0,2.,24.0,0.,24.0,0.,24.0
1979-07-24 08:12:57.790 ,0,1,3.,24.0,2.,24.0,6.,24.0,0.,24.0
1979-07-24 08:13:21.790 ,0,0,3.,24.0,0.,24.0,1.,24.0,0.,24.0
1979-07-24 08:13:45.790 ,1,1,4.,24.0,1.,24.0,4.,24.0,0.,24.0
1979-07-24 08:14:09.790 ,1,0,3.,24.0,1.,24.0,3.,24.0,0.,24.0
1979-07-24 08:14:33.790 ,2,1,4.,24.0,1.,24.0,2.,24.0,0.,24.0
1979-07-24 08:14:57.790 ,2,0,1.,24.0,0.,24.0,1.,24.0,0.,24.0
1979-07-24 08:15:21.790 ,3,1,5.,24.0,0.,24.0,1.,24.0,0.,24.0
1979-07-24 08:15:45.790 ,3,0,1.,24.0,0.,24.0,2.,24.0,0.,24.0
1979-07-24 08:16:09.790 ,4,1,2.,24.0,1.,24.0,1.,24.0,0.,24.0
1979-07-24 08:16:33.790 ,4,0,2.,24.0,2.,24.0,3.,24.0,0.,24.0
1979-07-24 08:16:57.790 ,5,1,1.,24.0,1.,24.0,1.,24.0,0.,24.0
1979-07-24 08:17:21.790 ,5,0,0.,24.0,1.,24.0,2.,24.0,0.,24.0
1979-07-24 08:17:45.790 ,6,1,3.,24.0,1.,24.0,5.,24.0,0.,24.0
1979-07-24 08:18:09.790 ,6,0,2.,24.0,0.,24.0,0.,24.0,0.,24.0
1979-07-24 08:18:33.790 ,7,0,12.,24.0,0.,24.0,0.,24.0,0.,24.0
1979-07-24 08:18:57.790 ,7,0,30.,24.0,0.,24.0,4.,24.0,0.,24.0
1979-07-24 08:19:21.790 ,5,1,16.,24.0,0.,24.0,0.,24.0,0.,24.0
1979-07-24 08:19:45.790 ,1,1,1.,24.0,0.,24.0,2.,24.0,0.,24.0
1979-07-24 08:20:09.790 ,2,1,3.,24.0,2.,24.0,2.,24.0,0.,24.0
1979-07-24 08:20:33.790 ,6,1,2.,24.0,0.,24.0,0.,24.0,0.,24.0
1979-07-24 08:20:57.790 ,5,1,21.,24.0,0.,24.0,1.,24.0,0.,24.0
1979-07-24 08:21:21.790 ,1,1,0.,24.0,0.,24.0,3.,24.0,0.,24.0
1979-07-24 08:21:45.790 ,2,1,4.,24.0,1.,24.0,3.,24.0,0.,24.0
1979-07-24 08:22:09.790 ,6,1,1.,24.0,0.,24.0,0.,24.0,0.,24.0
1979-07-24 08:22:33.790 ,5,1,18.,24.0,0.,24.0,1.,24.0,0.,24.0
1979-07-24 08:22:57.790 ,1,1,3.,24.0,1.,24.0,3.,24.0,0.,24.0
1979-07-24 08:23:21.790 ,2,1,2.,24.0,0.,24.0,0.,24.0,0.,24.0
1979-07-24 08:23:45.790 ,6,1,3.,24.0,2.,24.0,1.,24.0,0.,24.0
1979-07-24 08:24:09.790 ,5,1,15.,24.0,0.,24.0,3.,24.0,0.,24.0
1979-07-24 08:24:33.790 ,1,1,2.,24.0,0.,24.0,4.,24.0,0.,24.0
1979-07-24 08:24:57.790 ,2,1,4.,24.0,1.,24.0,1.,24.0,0.,24.0
1979-07-24 08:25:21.790 ,6,1,5.,24.0,2.,24.0,4.,24.0,0.,24.0
1979-07-24 08:25:45.790 ,5,1,19.,24.0,0.,24.0,1.,24.0,0.,24.0
1979-07-24 08:26:09.790 ,1,1,2.,24.0,1.,24.0,4.,24.0,0.,24.0
1979-07-24 08:26:33.790 ,2,1,6.,24.0,1.,24.0,7.,24.0,0.,24.0
1979-07-24 08:26:57.790 ,6,1,2.,24.0,3.,24.0,1.,24.0,0.,24.0
1979-07-24 08:27:21.790 ,5,1,13.,24.0,0.,24.0,1.,24.0,0.,24.0
1979-07-24 08:27:45.790 ,1,1,0.,24.0,1.,24.0,1.,24.0,0.,24.0
1979-07-24 08:28:09.790 ,2,1,1.,24.0,1.,24.0,0.,24.0,0.,24.0
1979-07-24 08:28:33.790 ,6,1,2.,24.0,0.,24.0,0.,24.0,0.,24.0
1979-07-24 08:28:57.790 ,5,1,23.,24.0,0.,24.0,0.,24.0,0.,24.0
1979-07-24 08:29:21.790 ,1,1,4.,24.0,0.,24.0,1.,24.0,0.,24.0
1979-07-24 08:29:45.790 ,0,0,5.,24.0,2.,24.0,2.,24.0,0.,24.0
1979-07-24 08:30:09.790 ,0,0,3.,24.0,0.,24.0,0.,24.0,0.,24.0
1979-07-24 08:30:33.790 ,5,1,14.,24.0,0.,24.0,0.,24.0,0.,24.0
1979-07-24 08:30:57.790 ,5,0,2.,24.0,1.,24.0,9.,24.0,0.,24.0
1979-07-24 08:31:21.790 ,4,1,4.,24.0,3.,24.0,4.,24.0,0.,24.0
1979-07-24 08:31:45.790 ,4,0,0.,24.0,0.,24.0,3.,24.0,0.,24.0
1979-07-24 08:32:09.790 ,3,1,1.,24.0,2.,24.0,1.,24.0,0.,24.0
1979-07-24 08:32:33.790 ,3,0,1.,24.0,0.,24.0,1.,24.0,0.,24.0
1979-07-24 08:32:57.790 ,2,1,2.,24.0,1.,24.0,1.,24.0,0.,24.0
1979-07-24 08:33:21.790 ,2,0,3.,24.0,2.,24.0,0.,24.0,0.,24.0
1979-07-24 08:33:45.790 ,1,1,2.,24.0,1.,24.0,2.,24.0,0.,24.0
1979-07-24 08:34:09.790 ,1,0,5.,24.0,2.,24.0,0.,24.0,0.,24.0
1979-07-24 08:34:33.790 ,0,1,8.,24.0,3.,24.0,2.,24.0,0.,24.0